Location: ???????
(55.4362°N, 38.1183°E)
Time: 14:21:57
(UTC+00:00)

Cosmos 372 Rocket - Pass Details

Date: 25 October 2021
Orbit: 738 x 768 km, 74.1° (Epoch: 04 December)

Event Time Altitude Azimuth Distance (km) Brightness Sun altitude
Rises 18:57:59 0° 323° (NW) 3,186 8.1 -39.7°
Reaches altitude 10° 19:02:30 10° 1° (N) 2,264 6.8 -40.2°
Enters shadow 19:02:32 10° 1° (N) 2,262 6.8 -40.2°
